Location: Turtle Rock Observatory
(36.6913°N, 81.9708°W)
Time: 13:40:15
(UTC-04:00)

Daily predictions for brighter satellites

Satellite Brightness Start Highest point End
(mag) Time Altitude Azimuth Time Altitude Azimuth Time Altitude Azimuth
Cosmos 1500 Rocket 4.4 21:19:13 10° SSE 21:23:04 31° E 21:26:56 10° NNE
USA 186 1.8 21:21:05 10° S 21:23:23 51° W 21:25:45 10° NNW
Cosmos 2221 3.2 21:21:23 10° NNW 21:25:34 56° W 21:29:45 10° S
deb Chang Zheng 4 3.8 21:23:22 10° NNE 21:27:34 48° E 21:31:45 10° S
BREEZE M DEB (TANK) 1.7 21:27:27 10° WNW 21:29:19 48° SSW 21:32:05 10° SE
Cosmos 1441 Rocket 3.6 21:30:24 10° SSE 21:33:59 42° E 21:37:34 10° NNE
Cosmos 1766 Rocket 4.3 21:31:23 10° SSW 21:35:44 57° W 21:40:05 10° N
ATLAS CENTAUR R/B 1.5 21:32:04 10° NNW 21:36:36 90° NNE 21:40:43 10° SSE
Delta 2 Rocket 3.6 21:34:15 10° SW 21:37:30 32° SSE 21:40:34 10° E
CZ-2C R/B 0.0 21:36:47 15° SSE 21:38:03 44° ENE 21:39:43 10° N
SJ-11-01 4.3 21:34:28 10° SSE 21:39:08 76° ENE 21:43:52 10° N
Cosmos 1538 Rocket 4.2 21:34:58 10° N 21:40:14 58° ENE 21:45:23 11° SSE
Cosmos 2322 Rocket 2.2 21:35:16 10° NNW 21:40:52 69° ENE 21:46:20 11° SSE
SL-16 R/B 2.2 21:44:28 10° NNW 21:50:10 77° ENE 21:55:22 12° SSE
Cosmos 1980 Rocket 3.6 21:45:51 10° NW 21:50:59 36° WSW 21:56:06 10° S
Cosmos 2360 Rocket 3.3 21:46:43 10° N 21:51:38 30° ENE 21:55:40 14° ESE
Cosmos 1939 Rocket 2.8 21:48:28 10° SSE 21:52:23 73° ENE 21:56:18 10° N
Cosmos 1515 Rocket 3.6 21:48:34 10° N 21:52:58 61° E 21:56:55 12° SSE
AVUM R/B 3.0 21:52:34 19° SSE 21:53:45 33° ESE 21:55:57 10° NE
Cosmos 1908 3.9 21:51:24 10° N 21:55:02 37° E 21:57:31 17° SE
In-Cosmos 22 4.4 21:49:26 10° S 21:55:12 83° W 22:01:00 10° N
CZ-4B R/B 4.3 21:50:50 10° NNE 21:55:34 33° E 21:59:35 13° SSE
Cosmos 2266 Rocket 4.2 21:50:24 10° SSE 21:56:33 56° E 22:02:37 10° NNE
Cosmos 1553 Rocket 4.1 21:53:38 10° N 22:00:04 86° W 22:06:23 10° S
Nimbus 7 Rocket 4.3 21:54:32 10° NNE 22:00:25 81° ESE 22:06:16 10° SSW
USA 229 DEB 3.7 21:55:34 10° SSW 22:02:28 87° SE 22:09:29 10° NNE
USA 229 3.7 21:55:40 10° SSW 22:02:35 86° ESE 22:09:35 10° NNE
Meteor 2-2 Rocket 4.4 22:00:30 10° N 22:06:29 72° E 22:11:41 14° SSE
Cosmos 773 Rocket 4.2 22:01:58 10° N 22:07:05 58° ENE 22:10:40 20° SE
MetOp-B 4.3 22:06:25 17° SE 22:10:23 57° ENE 22:15:37 10° N
Cosmos 2151 3.1 22:10:12 18° SSE 22:13:07 50° E 22:17:12 10° NNE
Cosmos 1674 2.6 22:09:53 12° S 22:13:19 77° E 22:17:11 10° N
Terra 3.9 22:12:30 11° E 22:14:26 14° ENE 22:16:49 10° NE
CZ-4 SHROUD 3.1 22:14:01 27° SSE 22:15:35 75° ENE 22:18:43 10° N
Cosmos 1833 4.2 22:11:21 10° SSW 22:17:04 84° ESE 22:22:47 10° NNE
Cosmos 1437 Rocket 2.6 22:14:20 10° N 22:18:09 86° W 22:20:37 21° S
Cosmos 1805 Rocket 4.3 22:17:06 24° SE 22:18:55 34° E 22:22:56 10° NNE
GPS 2-04 Rocket1 3.8 22:18:32 10° W 22:22:27 33° SSW 22:23:58 25° SSE
NOSS 3-1 (A) 4.2 22:20:04 21° SSE 22:22:29 28° ESE 22:27:42 10° NE
Cosmos 1151 Rocket 2.9 22:18:40 10° N 22:22:59 77° E 22:25:32 24° SSE
Cosmos 1300 4.0 22:21:16 10° NNE 22:24:26 24° ENE 22:25:08 23° E
OAO 2 Rocket 4.4 22:20:49 10° SSW 22:25:07 25° SSE 22:25:25 25° SSE
CZ-4 R/B 4.2 22:21:25 10° NNE 22:26:09 45° E 22:28:34 25° SSE
CZ-4C R/B 4.5 22:31:52 22° E 22:32:17 23° ENE 22:35:03 10° NNE
Nadezhda 2 Rocket 4.4 22:28:44 15° S 22:33:53 74° E 22:39:59 10° N
COSMOS 2428 3.7 22:28:55 10° N 22:33:58 32° ENE 22:36:34 22° ESE
Envisat 3.7 22:30:37 13° S 22:35:00 49° W 22:39:56 10° NNW
H-2A R/B 3.6 22:31:16 10° SSW 22:35:19 33° W 22:39:25 10° NNW
Cosmos 1328 3.6 22:34:24 26° S 22:36:31 84° E 22:40:29 10° N
Cosmos 1707 Rocket 4.1 22:35:27 10° N 22:39:35 41° E 22:40:39 34° ESE
Cosmos 1666 Rocket 4.0 22:39:52 36° SE 22:40:54 43° E 22:45:05 10° NNE
DELTA 2 R/B (1) 3.6 22:36:55 10° WNW 22:42:30 79° NNE 22:45:57 24° E
Cosmos 2298 Rocket 4.3 22:41:52 31° SSE 22:43:52 46° ESE 22:48:56 10° NNE
Cosmos 2058 2.8 22:42:56 37° S 22:44:26 72° E 22:48:32 10° NNE
ATLAS 2AS CENTAUR R/B 4.2 22:45:19 19° ESE 22:45:19 19° ESE 22:50:24 10° ENE
Cosmos 2112 Rocket 4.0 22:40:26 10° NNW 22:45:39 67° ENE 22:47:48 35° SE
YAOGAN 6 2.8 22:46:03 37° S 22:47:19 65° W 22:50:56 10° NNW
SPOT 5 3.7 22:45:55 18° SSW 22:48:52 42° W 22:53:19 10° NNW
Cosmos 1437 4.0 22:52:16 22° SW 22:53:56 40° WNW 22:57:03 10° N
Cosmos 405 4.3 22:50:56 10° NNW 22:54:18 37° W 22:55:47 25° SW
Cosmos 2219 Rocket 3.7 22:50:10 10° N 22:54:37 24° ENE 22:56:41 19° E
Cosmos 1937 Rocket 4.1 22:56:43 35° ESE 22:57:08 35° E 23:01:51 10° NE
ARGOS 3.1 22:55:49 34° SSE 22:58:16 88° WSW 23:03:42 10° NNW
H-2A R/B 2.5 23:00:41 38° ESE 23:02:16 50° ENE 23:07:28 10° N
SL-14 R/B 3.1 23:05:20 66° S 23:05:50 85° E 23:09:50 10° N
Cosmos 1703 3.9 23:07:24 41° ENE 23:07:24 41° ENE 23:10:39 10° NNE
IGS 5A 4.1 23:07:27 39° E 23:07:40 39° ENE 23:11:34 10° N
Cosmos 2219 3.5 23:02:22 10° SSW 23:08:06 69° WNW 23:13:51 10° NNE
SL-08 RB Rocket 3.7 23:08:39 49° S 23:09:47 77° WSW 23:14:17 10° NNW
NOSS 3-1 (C) 3.3 23:04:42 10° SSW 23:10:29 89° NW 23:16:54 10° NNE
Meteor 1-27 4.1 23:04:50 10° N 23:10:34 88° E 23:12:32 43° S
SPOT 1/Viking Rocket 4.2 23:12:06 30° SSW 23:14:21 49° W 23:19:22 10° NNW
Cosmos 1271 Rocket 3.3 23:11:31 10° N 23:14:50 44° ENE 23:14:50 44° ENE
Cosmos 2242 Rocket 3.6 23:11:47 10° N 23:16:13 62° E 23:16:33 60° ESE
DELTA 2 DEB (DPAF) 4.1 23:16:07 60° S 23:16:55 84° WSW 23:21:26 10° NNW
Cosmos 2333 4.5 23:11:17 10° NNW 23:16:56 57° ENE 23:18:26 44° ESE
Cosmos 2322 4.3 23:13:17 10° NNW 23:18:48 51° WSW 23:20:54 34° SSW
Delta 2 Rocket 4.5 23:16:21 10° W 23:17:57 25° WSW 23:17:57 25° WSW
Cosmos 2082 4.4 23:21:49 36° E 23:21:49 36° E 23:26:40 10° NE
Cosmos 2237 Rocket 3.6 23:16:55 10° N 23:21:40 26° ENE 23:23:15 23° E
SAR-Lupe-2 4.2 23:22:48 46° NE 23:22:48 46° NE 23:25:42 10° N
Cosmos 1726 2.2 23:18:48 10° N 23:22:28 74° WNW 23:22:28 74° WNW
Cosmos 1680 Rocket 4.3 23:18:07 10° NNW 23:23:06 44° WSW 23:24:52 33° SSW
Iridium 2 3.9 23:28:43 66° NNE 23:28:43 66° NNE 23:32:04 10° N
Cosmos 2150 Rocket 4.3 23:31:21 34° SW 23:33:46 69° WNW 23:39:14 10° NNE
Cosmos 1898 Rocket 3.7 23:33:17 37° SW 23:35:15 67° WNW 23:40:27 10° NNE
Cosmos 2360 Rocket 3.3 23:30:33 10° NW 23:35:36 34° WSW 23:37:27 28° SW
Landsat 7 4.1 23:35:02 51° SW 23:35:47 58° W 23:40:30 10° NNW
CARTOSAT-1 3.5 23:37:19 75° WSW 23:37:22 76° WSW 23:41:42 10° NNW
Cosmos 1862 Rocket 4.2 23:33:39 10° N 23:37:19 43° ENE 23:37:19 43° ENE
DMSP B5D2-2 4.1 23:35:57 10° N 23:41:10 76° WNW 23:42:27 51° SW
Cosmos 1633 Rocket 4.1 23:42:16 35° WSW 23:43:18 40° W 23:47:27 10° N
Sich 1 4.2 23:42:31 31° WSW 23:43:44 38° W 23:47:53 10° N
Spot 4 3.7 23:44:36 81° SSE 23:44:50 90° W 23:49:42 10° NNW
Terra 2.1 23:51:23 57° WSW 23:51:39 58° W 23:56:21 10° NNW
Cosmos 292 Rocket 3.7 23:49:46 10° NNW 23:54:22 80° WNW 23:54:22 80° WNW
